Weather History for Wallops Island, VA

Change the Weather History Date:

Tuesday, October 9, 2012

  Actual Average Record
Temperature  
Mean Temperature 59 °F 61 °F  
Max Temperature 64 °F 70 °F 91 °F (2007)
Min Temperature 54 °F 53 °F 33 °F (2001)
Degree Days  
Heating Degree Days 6    
Month to date heating degree days 31  
Since 1 July heating degree days 41  
Cooling Degree Days 0    
Month to date cooling degree days 51  
Year to date cooling degree days 1600  
Growing Degree Days 8 (Base 50)    
Moisture  
Dew Point 53 °F    
Average Humidity 82    
Maximum Humidity 86    
Minimum Humidity 78    
Precipitation  
Precipitation 0.23 in 0.11 in 2.30 in (2013)
Month to date precipitation 1.45 0.94  
Year to date precipitation 35.67 32.31  
Sea Level Pressure  
Sea Level Pressure 30.08 in    
Wind  
Wind Speed 9 mph (North)    
Max Wind Speed 14 mph    
Max Gust Speed 21 mph    
Visibility 7 miles    
Events Rain    
T = Trace of Precipitation, MM = Missing Value Source: NWS Daily Summary

Daily Weather History Graph

Daily Weather History Graph

Search for Another Location

Airport:

Trip Planner

Search our weather history database for the weather conditions in past years. The results will help you decide how hot, cold, wet, or windy it might be!

Date:

Astronomy

Oct. 09, 2012 Rise Set
Actual Time 7:05 AM EDT 6:32 PM EDT
Civil Twilight 6:38 AM EDT 6:58 PM EDT
Nautical Twilight 6:08 AM EDT 7:28 PM EDT
Astronomical Twilight 5:37 AM EDT 7:59 PM EDT
Moon 12:45 AM EDT (10/9) 2:52 PM EDT (10/9)
Length of Visible Light 12h 19m
Length of Day
11h 27m
Last Quarter, 37% of the Moon is Illuminated
Oct 9
Last Quarter
Oct 15
New
Oct 21
First Quarter
Oct 29
Full
Nov 6
Last Quarter

Hourly Weather History & Observations

Time (EDT) Temp. Dew Point Humidity Pressure Visibility Wind Dir Wind Speed Gust Speed Precip Events Conditions
12:54 AM 54.0 °F 48.0 °F 80% 30.10 in 9.0 mi North 9.2 mph - N/A   Overcast
1:54 AM 54.0 °F 48.9 °F 83% 30.09 in 10.0 mi North 8.1 mph - N/A   Overcast
2:54 AM 55.0 °F 50.0 °F 83% 30.09 in 10.0 mi North 8.1 mph - N/A   Overcast
3:30 AM 55.9 °F 50.0 °F 80% 30.10 in 9.0 mi North 9.2 mph - N/A   Overcast
3:54 AM 55.9 °F 50.0 °F 80% 30.09 in 9.0 mi North 9.2 mph - 0.00 in Rain Light Rain
4:03 AM 55.9 °F 50.0 °F 80% 30.09 in 9.0 mi North 10.4 mph - 0.00 in Rain Light Rain
4:37 AM 55.9 °F 50.0 °F 80% 30.09 in 9.0 mi North 10.4 mph - 0.00 in Rain Light Rain
4:54 AM 55.9 °F 51.1 °F 84% 30.07 in 4.0 mi NNE 10.4 mph - 0.07 in Rain Light Rain
5:01 AM 55.9 °F 51.1 °F 84% 30.08 in 5.0 mi NNE 13.8 mph - 0.00 in Rain Light Rain
5:29 AM 55.9 °F 51.1 °F 84% 30.09 in 7.0 mi North 11.5 mph - 0.01 in Rain Light Rain
5:54 AM 55.9 °F 51.1 °F 84% 30.08 in 6.0 mi North 11.5 mph - 0.04 in Rain Light Rain
6:54 AM 55.0 °F 50.0 °F 83% 30.08 in 8.0 mi North 10.4 mph - 0.01 in Rain Light Rain
7:02 AM 55.0 °F 50.0 °F 83% 30.09 in 7.0 mi North 10.4 mph - 0.01 in Rain Light Rain
7:09 AM 55.0 °F 50.0 °F 83% 30.09 in 7.0 mi North 12.7 mph - 0.01 in Rain Light Rain
7:18 AM 55.0 °F 48.9 °F 80% 30.09 in 7.0 mi North 9.2 mph - 0.01 in Rain Light Rain
7:54 AM 55.0 °F 50.0 °F 83% 30.09 in 5.0 mi North 11.5 mph - 0.01 in Rain Light Rain
8:54 AM 55.0 °F 50.0 °F 83% 30.10 in 3.0 mi North 9.2 mph - 0.02 in Rain Light Rain
9:54 AM 55.9 °F 51.1 °F 84% 30.11 in 4.0 mi NNE 11.5 mph - 0.01 in Rain Light Rain
10:42 AM 57.0 °F 52.0 °F 83% 30.12 in 2.5 mi North 9.2 mph - 0.02 in Rain Light Rain
10:49 AM 57.2 °F 53.6 °F 88% 30.12 in 2.0 mi North 8.1 mph - 0.03 in Rain Light Rain
10:54 AM 57.9 °F 53.1 °F 84% 30.11 in 2.5 mi North 9.2 mph - 0.03 in Rain Light Rain
11:04 AM 57.9 °F 53.1 °F 84% 30.12 in 3.0 mi North 9.2 mph - 0.00 in Rain Light Rain
11:19 AM 57.9 °F 53.1 °F 84% 30.12 in 2.5 mi North 8.1 mph - 0.01 in Rain Light Rain
11:33 AM 57.9 °F 53.1 °F 84% 30.11 in 3.0 mi NNE 10.4 mph - 0.02 in Rain Light Rain
11:38 AM 57.9 °F 53.1 °F 84% 30.11 in 2.0 mi North 9.2 mph - 0.03 in Rain Light Rain
11:52 AM 59.0 °F 53.6 °F 82% 30.10 in 3.0 mi NNE 11.5 mph - 0.04 in Rain Light Rain
11:53 AM 59.0 °F 54.0 °F 83% 30.09 in 3.0 mi NNE 11.5 mph - 0.04 in Rain Light Rain
12:44 PM 60.1 °F 54.0 °F 80% 30.09 in 10.0 mi NNE 9.2 mph - 0.00 in   Overcast
12:54 PM 60.1 °F 54.0 °F 80% 30.08 in 10.0 mi NNE 9.2 mph - 0.00 in   Overcast
1:54 PM 61.0 °F 55.0 °F 81% 30.06 in 6.0 mi North 8.1 mph - 0.00 in Rain Light Rain
2:30 PM 61.0 °F 55.0 °F 81% 30.06 in 9.0 mi NNE 10.4 mph - 0.00 in   Overcast
2:54 PM 62.1 °F 55.0 °F 78% 30.06 in 8.0 mi North 9.2 mph - 0.00 in   Overcast
3:30 PM 61.0 °F 55.0 °F 81% 30.06 in 9.0 mi North 9.2 mph - N/A   Overcast
3:54 PM 63.0 °F 55.9 °F 78% 30.05 in 10.0 mi North 9.2 mph - N/A   Overcast
4:41 PM 63.0 °F 55.9 °F 78% 30.06 in 10.0 mi North 9.2 mph - N/A   Mostly Cloudy
4:54 PM 63.0 °F 55.9 °F 78% 30.05 in 10.0 mi North 6.9 mph - N/A   Overcast
5:18 PM 63.0 °F 55.9 °F 78% 30.05 in 10.0 mi NNE 9.2 mph - N/A   Overcast
5:54 PM 62.1 °F 55.9 °F 80% 30.05 in 10.0 mi North 6.9 mph - N/A   Overcast
6:20 PM 62.1 °F 55.9 °F 80% 30.05 in 8.0 mi North 6.9 mph - N/A   Overcast
6:52 PM 60.8 °F 55.4 °F 82% 30.06 in 6.0 mi NNW 5.8 mph - N/A   Haze
6:54 PM 61.0 °F 55.9 °F 83% 30.05 in 6.0 mi NNW 8.1 mph - N/A   Haze
7:34 PM 61.0 °F 55.9 °F 83% 30.05 in 9.0 mi North 6.9 mph - N/A   Overcast
7:54 PM 61.0 °F 55.9 °F 83% 30.05 in 8.0 mi North 6.9 mph - N/A   Overcast
8:54 PM 61.0 °F 55.0 °F 81% 30.05 in 9.0 mi North 5.8 mph - N/A   Overcast
9:26 PM 61.0 °F 55.0 °F 81% 30.06 in 7.0 mi North 6.9 mph - N/A   Overcast
9:54 PM 61.0 °F 55.0 °F 81% 30.05 in 6.0 mi North 8.1 mph - N/A   Haze
10:54 PM 60.1 °F 55.0 °F 83% 30.04 in 5.0 mi North 6.9 mph - 0.00 in   Haze
11:54 PM 60.1 °F 55.0 °F 83% 30.03 in 4.0 mi North 6.9 mph - N/A   Haze